This is the latest recevied weather packets stored in our database for station/object DG2HSI-10. If no packets are shown the sender has not sent any weather packets the latest 10 day(s).
| Time | Temp. | Humidity | Pressure | Rain* | Wind** | Luminosity | Snow |
|---|---|---|---|---|---|---|---|
| 1777574133 | 15° C | 42% | 1030.4 hPa | - | - | - | - |
| 1777572933 | 16.67° C | 40% | 1030.2 hPa | - | - | - | - |
| 1777571733 | 17.22° C | 38% | 1030.3 hPa | - | - | - | - |
| 1777570533 | 17.78° C | 36% | 1030.4 hPa | - | - | - | - |
| 1777569333 | 18.33° C | 36% | 1030.4 hPa | - | - | - | - |
| 1777568133 | 19.44° C | 34% | 1030.5 hPa | - | - | - | - |
| 1777566932 | 20° C | 32% | 1030.8 hPa | - | - | - | - |
| 1777565732 | 22.22° C | 30% | 1030.8 hPa | - | - | - | - |
| 1777564532 | 25° C | 29% | 1031 hPa | - | - | - | - |
| 1777563332 | 26.67° C | 27% | 1030.9 hPa | - | - | - | - |
| 1777562132 | 29.44° C | 23% | 1031.1 hPa | - | - | - | - |
| 1777560931 | 32.78° C | 22% | 1031.2 hPa | - | - | - | - |
| 1777559731 | 34.44° C | 22% | 1031.3 hPa | - | - | - | - |
| 1777558531 | 34.44° C | 21% | 1031.5 hPa | - | - | - | - |
| 1777557331 | 33.89° C | 21% | 1031.5 hPa | - | - | - | - |
| 1777556131 | 35° C | 21% | 1031.7 hPa | - | - | - | - |
| 1777554931 | 35° C | 22% | 1031.9 hPa | - | - | - | - |
| 1777553731 | 34.44° C | 21% | 1032.1 hPa | - | - | - | - |
| 1777552530 | 34.44° C | 21% | 1032.2 hPa | - | - | - | - |
| 1777551330 | 33.89° C | 21% | 1032.3 hPa | - | - | - | - |
| 1777550130 | 34.44° C | 20% | 1032.6 hPa | - | - | - | - |
| 1777548930 | 33.89° C | 21% | 1032.6 hPa | - | - | - | - |
| 1777547730 | 32.78° C | 21% | 1032.7 hPa | - | - | - | - |
| 1777546530 | 32.22° C | 21% | 1032.9 hPa | - | - | - | - |
| 1777545329 | 30.56° C | 22% | 1032.9 hPa | - | - | - | - |
* Rain since midnight (hover to see other rain measurements)
** Current wind speed in m/s (hover to see current wind gust speed)